EW2748 Weather Reports


time (UTC)temp
C
wind
direction
speed
KPH
gust
KPH
rain 1hr
cm
rain 24hr
cm
rain mn
cm
humidity
%
barometer
mb
20260504150507 20 235 0.0 4.8 0.00 0.00 0.00 56 1017.3
20260504141007 17 156 3.2 9.7 0.00 0.00 0.00 60 1017.6
20260504140508 17 134 0.0 6.4 0.00 0.00 0.00 64 1017.7
20260504130506 14 103 1.6 3.2 0.00 0.00 0.00 68 1018.1
20260504100507 8 295 0.0 0.0 0.00 0.00 0.00 88 1016.9
20260504082008 8 295 0.0 0.0 0.00 0.00 0.00 88 1016.8
20260504081534 8 295 0.0 0.0 0.00 0.00 0.00 88 1016.8
20260504081008 8 295 0.0 0.0 0.00 0.00 0.00 88 1016.9
20260504080509 8 295 0.0 0.0 0.00 0.00 0.00 88 1016.9
20260504050507 10 295 0.0 0.0 0.00 0.00 0.00 85 1018.2
20260504050024 10 295 0.0 0.0 0.00 0.00 0.00 84 1018.2
20260504045503 10 295 0.0 0.0 0.00 0.00 0.00 84 1018.2
20260504045004 10 295 0.0 0.0 0.00 0.00 0.00 83 1018.1
20260504044522 10 295 0.0 0.0 0.00 0.00 0.00 83 1018.1
20260504043504 10 295 0.0 0.0 0.00 0.00 0.00 81 1018.1
20260504043017 10 295 0.0 0.0 0.00 0.00 0.00 81 1018.2
20260504042509 11 295 0.0 0.0 0.00 0.00 0.00 80 1018.2
20260504042002 11 295 0.0 0.0 0.00 0.00 0.00 80 1018.1
20260504041512 11 295 0.0 0.0 0.00 0.00 0.00 79 1018.0
20260504041006 11 295 0.0 0.0 0.00 0.00 0.00 79 1017.9
20260504040507 11 295 0.0 0.0 0.00 0.00 0.00 79 1017.9
20260504040010 11 295 0.0 0.0 0.00 0.00 0.00 78 1018.0
20260504035505 10 295 0.0 0.0 0.00 0.00 0.00 79 1018.1
20260504035007 10 295 0.0 0.0 0.00 0.00 0.00 79 1018.2
20260504034512 10 295 0.0 0.0 0.00 0.00 0.00 79 1018.3
20260504034004 10 295 0.0 0.0 0.00 0.00 0.00 79 1018.2
20260504033507 10 295 0.0 0.0 0.00 0.00 0.00 78 1018.3
20260504033044 10 295 0.0 0.0 0.00 0.00 0.00 78 1018.4
20260504032504 10 295 0.0 0.0 0.00 0.00 0.00 78 1018.5
20260504032005 11 295 0.0 0.0 0.00 0.00 0.00 77 1018.5
20260504031527 11 295 0.0 0.0 0.00 0.00 0.00 76 1018.6
20260504031005 11 295 0.0 0.0 0.00 0.00 0.00 77 1018.6
20260504030503 11 295 0.0 0.0 0.00 0.00 0.00 77 1018.7
20260504030022 11 295 0.0 0.0 0.00 0.00 0.00 75 1018.8
20260504025512 11 295 0.0 0.0 0.00 0.00 0.00 74 1018.8
20260504025004 11 295 0.0 0.0 0.00 0.00 0.00 74 1018.7
20260504024535 11 295 0.0 0.0 0.00 0.00 0.00 73 1018.8
20260504024008 11 295 0.0 0.0 0.00 0.00 0.00 72 1018.7
20260504023508 11 295 0.0 0.0 0.00 0.00 0.00 73 1018.7
20260504023011 11 295 0.0 0.0 0.00 0.00 0.00 72 1018.7
20260504022504 11 295 0.0 0.0 0.00 0.00 0.00 70 1018.7
20260504022014 12 295 0.0 0.0 0.00 0.00 0.00 69 1018.6
20260504021510 12 295 0.0 0.0 0.00 0.00 0.00 70 1018.6
20260504021005 12 295 0.0 0.0 0.00 0.00 0.00 68 1018.5
20260504020505 12 295 0.0 0.0 0.00 0.00 0.00 67 1018.4
20260504020028 12 295 0.0 0.0 0.00 0.00 0.00 68 1018.4
20260504015504 12 295 0.0 0.0 0.00 0.00 0.00 67 1018.3
20260504015007 12 295 0.0 0.0 0.00 0.00 0.00 67 1018.3
20260504014524 13 295 0.0 0.0 0.00 0.00 0.00 64 1018.3
20260504014005 13 295 0.0 0.0 0.00 0.00 0.00 64 1018.2
20260504013506 13 295 0.0 0.0 0.00 0.00 0.00 63 1018.0
20260504013023 13 295 0.0 0.0 0.00 0.00 0.00 62 1017.9
20260504012507 13 295 0.0 0.0 0.00 0.00 0.00 61 1017.8
20260504012004 13 295 0.0 0.0 0.00 0.00 0.00 62 1017.7
20260504011518 13 295 0.0 0.0 0.00 0.00 0.00 60 1017.8
20260504011007 14 295 0.0 0.0 0.00 0.00 0.00 59 1017.7
20260504010510 14 295 0.0 0.0 0.00 0.00 0.00 57 1017.7
20260504010014 14 295 0.0 0.0 0.00 0.00 0.00 56 1017.8
20260504005508 15 295 0.0 0.0 0.00 0.00 0.00 57 1017.8
20260504005010 15 295 0.0 0.0 0.00 0.00 0.00 56 1017.8
20260504004525 15 295 0.0 0.0 0.00 0.00 0.00 53 1017.7
20260504004008 16 295 0.0 0.0 0.00 0.00 0.00 53 1017.7
20260504003510 16 295 0.0 0.0 0.00 0.00 0.00 49 1017.7
20260504003027 16 295 0.0 0.0 0.00 0.00 0.00 50 1017.7
20260504002506 16 295 0.0 0.0 0.00 0.00 0.00 47 1017.8
20260504002009 17 295 0.0 0.0 0.00 0.00 0.00 45 1017.9
20260504001526 17 295 0.0 0.0 0.00 0.00 0.00 44 1017.9
20260504001007 17 295 0.0 0.0 0.00 0.00 0.00 41 1017.9
20260504000507 17 295 0.0 0.0 0.00 0.00 0.00 42 1017.9
20260504000025 17 296 0.0 0.0 0.00 0.00 0.00 39 1017.9
20260503235509 17 296 0.0 1.6 0.00 0.00 0.00 40 1018.0
20260503235003 18 296 0.0 6.4 0.00 0.00 0.00 41 1018.0
20260503234521 18 275 0.0 6.4 0.00 0.00 0.00 37 1018.0
20260503234012 18 5 1.6 4.8 0.00 0.00 0.00 38 1018.1
20260503233505 18 287 0.0 3.2 0.00 0.00 0.00 39 1018.1
20260503233018 18 330 0.0 1.6 0.00 0.00 0.00 39 1018.1
20260503232013 18 347 0.0 3.2 0.00 0.00 0.00 38 1018.1
20260503231516 18 303 0.0 6.4 0.00 0.00 0.00 37 1018.3
20260503231010 18 318 0.0 6.4 0.00 0.00 0.00 38 1018.2
20260503230511 18 342 0.0 3.2 0.00 0.00 0.00 37 1018.2
20260503230028 18 332 0.0 4.8 0.00 0.00 0.00 38 1018.3
20260503225008 18 292 0.0 3.2 0.00 0.00 0.00 38 1018.3
20260503224527 18 93 0.0 6.4 0.00 0.00 0.00 37 1018.4
20260503223504 19 225 1.6 9.7 0.00 0.00 0.00 38 1018.3
20260503223025 19 257 0.0 6.4 0.00 0.00 0.00 37 1018.4
20260503222509 19 263 1.6 9.7 0.00 0.00 0.00 40 1018.4
20260503222006 19 277 0.0 9.7 0.00 0.00 0.00 40 1018.5
20260503221521 19 286 0.0 4.8 0.00 0.00 0.00 38 1018.5
20260503221012 19 62 1.6 6.4 0.00 0.00 0.00 38 1018.6
20260503220505 19 240 0.0 6.4 0.00 0.00 0.00 40 1018.6
20260503220023 19 259 0.0 6.4 0.00 0.00 0.00 40 1018.6
20260503215506 19 34 3.2 6.4 0.00 0.00 0.00 39 1018.6
20260503215009 19 10 0.0 8.0 0.00 0.00 0.00 41 1018.6
20260503214515 19 255 1.6 8.0 0.00 0.00 0.00 40 1018.6
20260503214009 19 39 1.6 8.0 0.00 0.00 0.00 39 1018.8
20260503213503 19 297 3.2 8.0 0.00 0.00 0.00 37 1019.0
20260503213017 19 281 4.8 8.0 0.00 0.00 0.00 37 1019.1
20260503212506 19 65 0.0 8.0 0.00 0.00 0.00 39 1019.1
20260503212009 20 2 1.6 8.0 0.00 0.00 0.00 38 1019.2
20260503211510 20 333 3.2 8.0 0.00 0.00 0.00 37 1019.3
20260503211005 20 270 0.0 6.4 0.00 0.00 0.00 39 1019.2
20260503210506 20 17 1.6 6.4 0.00 0.00 0.00 38 1019.3
20260503210008 20 285 1.6 11.3 0.00 0.00 0.00 39 1019.2
20260503205504 20 303 3.2 11.3 0.00 0.00 0.00 37 1019.2
20260503205005 20 290 1.6 6.4 0.00 0.00 0.00 37 1019.2
20260503204528 20 249 0.0 4.8 0.00 0.00 0.00 36 1019.4
20260503204003 20 276 0.0 4.8 0.00 0.00 0.00 37 1019.4
20260503203506 20 65 0.0 3.2 0.00 0.00 0.00 38 1019.5
20260503203023 20 308 0.0 11.3 0.00 0.00 0.00 38 1019.6
20260503202504 20 215 3.2 11.3 0.00 0.00 0.00 38 1019.7
20260503202006 20 261 1.6 4.8 0.00 0.00 0.00 38 1019.8
20260503201520 20 266 1.6 6.4 0.00 0.00 0.00 41 1019.9
20260503201009 20 273 3.2 6.4 0.00 0.00 0.00 37 1020.1
20260503200502 20 267 0.0 6.4 0.00 0.00 0.00 38 1020.1
20260503200016 20 307 1.6 6.4 0.00 0.00 0.00 37 1020.2
20260503195509 20 46 1.6 6.4 0.00 0.00 0.00 41 1020.3
20260503195010 20 87 1.6 6.4 0.00 0.00 0.00 36 1020.3
20260503194512 20 70 1.6 3.2 0.00 0.00 0.00 37 1020.5
20260503194004 20 265 0.0 6.4 0.00 0.00 0.00 39 1020.6
20260503193510 20 337 1.6 6.4 0.00 0.00 0.00 36 1020.8
20260503193028 20 349 0.0 6.4 0.00 0.00 0.00 36 1020.8
20260503192504 20 347 1.6 6.4 0.00 0.00 0.00 36 1021.0
20260503192007 20 245 0.0 8.0 0.00 0.00 0.00 35 1021.1
20260503191524 19 308 1.6 11.3 0.00 0.00 0.00 37 1021.2
20260503191006 19 283 3.2 11.3 0.00 0.00 0.00 36 1021.3
20260503190505 19 261 0.0 8.0 0.00 0.00 0.00 36 1021.3
20260503190038 19 252 1.6 8.0 0.00 0.00 0.00 37 1021.4
20260503185504 19 120 1.6 6.4 0.00 0.00 0.00 41 1021.3
20260503185006 18 9 0.0 4.8 0.00 0.00 0.00 39 1021.3
20260503184524 18 99 0.0 9.7 0.00 0.00 0.00 42 1021.5
20260503184008 18 264 0.0 11.3 0.00 0.00 0.00 43 1021.5
20260503183503 18 159 3.2 11.3 0.00 0.00 0.00 42 1021.6
20260503183020 18 304 1.6 8.0 0.00 0.00 0.00 42 1021.6
20260503182509 18 89 1.6 8.0 0.00 0.00 0.00 43 1021.7
20260503182017 18 115 0.0 8.0 0.00 0.00 0.00 42 1021.8
20260503181517 18 115 1.6 8.0 0.00 0.00 0.00 48 1021.8
20260503181009 18 176 0.0 6.4 0.00 0.00 0.00 48 1021.8
20260503180508 18 112 1.6 9.7 0.00 0.00 0.00 43 1021.8
20260503180013 18 304 1.6 9.7 0.00 0.00 0.00 44 1021.8
20260503175505 18 53 0.0 4.8 0.00 0.00 0.00 42 1021.9
20260503175008 17 180 0.0 3.2 0.00 0.00 0.00 45 1021.9
20260503174535 17 50 1.6 4.8 0.00 0.00 0.00 44 1022.0
20260503174003 17 261 0.0 6.4 0.00 0.00 0.00 45 1022.1
20260503173507 17 314 3.2 6.4 0.00 0.00 0.00 46 1022.2
20260503173027 17 51 0.0 4.8 0.00 0.00 0.00 46 1022.2
20260503172503 17 240 0.0 8.0 0.00 0.00 0.00 48 1022.3
20260503172007 17 150 1.6 8.0 0.00 0.00 0.00 50 1022.4
20260503171522 16 299 0.0 6.4 0.00 0.00 0.00 50 1022.4
20260503171009 16 95 3.2 6.4 0.00 0.00 0.00 48 1022.5
20260503170506 16 122 0.0 6.4 0.00 0.00 0.00 48 1022.4